Lewistown, MT

10:52 AM MDT on May 24, 2018 (GMT -0600)
Lewistown Municipal

Weather History for KLWT - January, 2012

Change the Weather History Date:

Monday, January 16, 2012

  Actual Average Record
Temperature  
Mean Temperature 0 °F 24 °F  
Max Temperature 7 °F 34 °F 64 °F (1974)
Min Temperature -7 °F 13 °F -31 °F (1916)
Degree Days  
Heating Degree Days 65 41  
Month to date heating degree days 584 668  
Since 1 July heating degree days 3574 4090  
Cooling Degree Days 0 0  
Month to date cooling degree days 0 0  
Year to date cooling degree days 0 0  
Moisture  
Dew Point -2 °F    
Average Humidity 82    
Maximum Humidity 95    
Minimum Humidity 69    
Precipitation  
Precipitation T in 0.02 in 0.50 in (1922)
Month to date precipitation 0.05 0.31  
Year to date precipitation 0.05 0.31  
Snow  
Snow 0.00 in - - ()
Snow Depth 1.00 in    
Sea Level Pressure  
Sea Level Pressure 30.09 in    
Wind  
Wind Speed 4 mph (WNW)    
Max Wind Speed 9 mph    
Max Gust Speed 12 mph    
Visibility 6 miles    
Events Snow    
T = Trace of Precipitation, MM = Missing Value Source: NWS Daily Summary

Daily Weather History Graph

Daily Weather History Graph

Search for Another Location

Airport or City:

Astronomy

Jan. 16, 2012 Rise Set
Actual Time 7:59 AM MST 4:56 PM MST
Civil Twilight 7:24 AM MST 5:30 PM MST
Nautical Twilight 6:47 AM MST 6:08 PM MST
Astronomical Twilight 6:10 AM MST 6:44 PM MST
Moon 1:04 AM MST (1/16) 11:18 AM MST (1/16)
Length of Visible Light 10h 05m
Length of Day
8h 57m
Last Quarter, 45% of the Moon is Illuminated
Jan 16
Last Quarter
Jan 23
New
Jan 30
First Quarter
Feb 7
Full
Feb 14
Last Quarter

Hourly Weather History & Observations

Time (MST) Temp. Windchill Dew Point Humidity Pressure Visibility Wind Dir Wind Speed Gust Speed Precip Events Conditions
12:54 AM 5.0 °F -4.1 °F 1.0 °F 84% 30.08 in 3.0 mi WNW 4.6 mph - 0.00 in Snow Light Snow
1:54 AM 3.9 °F -8.2 °F -0.0 °F 84% 30.08 in 5.0 mi WNW 6.9 mph - 0.00 in Snow Light Snow
2:54 AM 3.0 °F -9.3 °F -0.0 °F 87% 30.11 in 9.0 mi West 6.9 mph - 0.00 in   Overcast
3:33 AM 3.2 °F -10.3 °F -0.4 °F 85% 29.90 in 2.5 mi West 8.1 mph - 0.00 in Snow Light Snow
3:54 AM 3.0 °F -9.3 °F -0.0 °F 87% 30.12 in 2.5 mi West 6.9 mph - 0.00 in Snow Light Snow
4:07 AM 3.2 °F -9.1 °F -0.4 °F 85% 29.90 in 2.0 mi WNW 6.9 mph - 0.00 in Snow Light Snow
4:52 AM 1.4 °F -9.9 °F -0.4 °F 92% 29.90 in 1.8 mi WNW 5.8 mph - 0.00 in Snow Light Snow
4:54 AM 1.9 °F -9.2 °F -0.9 °F 88% 30.12 in 1.8 mi West 5.8 mph - 0.00 in Snow Light Snow
4:58 AM 1.4 °F -9.9 °F -0.4 °F 92% 29.90 in 2.0 mi WNW 5.8 mph - 0.00 in Snow Light Snow
5:11 AM 1.4 °F -9.9 °F -0.4 °F 92% 29.90 in 3.0 mi West 5.8 mph - 0.00 in   Overcast
5:54 AM 1.9 °F -10.6 °F -0.9 °F 88% 30.13 in 2.0 mi West 6.9 mph - 0.00 in Snow Light Snow
6:05 AM 1.4 °F -8.3 °F -0.4 °F 92% 29.91 in 1.5 mi WNW 4.6 mph - 0.00 in Snow Light Snow
6:38 AM 1.4 °F -8.3 °F -2.2 °F 85% 29.91 in 2.0 mi North 4.6 mph - 0.00 in Snow Light Snow
6:54 AM 1.9 °F -10.6 °F -2.0 °F 83% 30.15 in 2.5 mi North 6.9 mph - 0.00 in Snow Light Snow
7:03 AM 1.4 °F -11.3 °F -2.2 °F 85% 29.92 in 3.0 mi WNW 6.9 mph - 0.00 in   Overcast
7:29 AM 1.4 °F -8.3 °F -4.0 °F 78% 29.93 in 8.0 mi WNW 4.6 mph - 0.00 in   Mostly Cloudy
7:54 AM 1.0 °F -6.7 °F -2.9 °F 83% 30.17 in 7.0 mi North 3.5 mph - 0.00 in   Partly Cloudy
8:54 AM -0.0 °F - -5.1 °F 79% 30.18 in 10.0 mi Calm Calm - N/A   Clear
9:54 AM -0.9 °F -12.7 °F -5.1 °F 83% 30.20 in 10.0 mi West 5.8 mph - N/A   Clear
10:54 AM -0.0 °F - -2.9 °F 88% 30.19 in 10.0 mi Calm Calm - N/A   Mostly Cloudy
11:54 AM 1.9 °F - -2.0 °F 83% 30.16 in 10.0 mi Calm Calm - N/A   Overcast
12:54 PM 5.0 °F -4.1 °F -2.0 °F 73% 30.14 in 10.0 mi NNW 4.6 mph - N/A   Clear
1:54 PM 7.0 °F -4.5 °F -0.9 °F 70% 30.13 in 10.0 mi North 6.9 mph - N/A   Clear
2:54 PM 6.1 °F -5.6 °F -0.9 °F 73% 30.14 in 10.0 mi NNE 6.9 mph - N/A   Overcast
3:54 PM 6.1 °F -0.9 °F -2.0 °F 69% 30.16 in 10.0 mi NNW 3.5 mph - N/A   Partly Cloudy
4:54 PM 3.9 °F -3.4 °F -0.9 °F 80% 30.19 in 5.0 mi North 3.5 mph - 0.00 in Snow Light Snow
5:54 PM 1.9 °F - -2.0 °F 83% 30.20 in 10.0 mi Calm Calm - 0.00 in   Partly Cloudy
7:54 PM -4.0 °F - -7.1 °F 87% 30.21 in 10.0 mi Calm Calm - N/A   Clear
8:54 PM -6.0 °F -14.7 °F -9.0 °F 87% 30.22 in 10.0 mi SW 3.5 mph - N/A   Clear
10:54 PM -5.1 °F -17.6 °F -8.0 °F 87% 30.25 in 10.0 mi West 5.8 mph - N/A   Clear
11:54 PM -2.9 °F -17.7 °F -6.0 °F 87% 30.25 in 10.0 mi West 8.1 mph - N/A   Overcast